Terminal Aerodrome Forecast
Issued by NWS

Home | Current Version | Previous Version | Text Only | Print | Product List | Glossary On
Versions: 1 2 3 4 5 6 7 8 9 10 11 12 13 14 15 16 17
000
FTUS44 KEWX 251000 AAA
TAFSSF
TAF AMD
KSSF 251011Z 2510/2606 17004KT P6SM FEW015 FEW250
      TEMPO 2510/2514 BKN012
     FM251600 15006KT P6SM SCT050
     FM252300 13010KT P6SM FEW060=

USA.gov is the U.S. government's official web portal to all federal, state and local government web resources and services.